RH
18 18 22 29 31 31 35 100 100 100 100 100 100 100 100 100 100 100 100 79 44 23 20 24 37 39 30 38 34 28 22 20 22 22 21 20 20 19 19 18 18 18 17
21 22 22 26 30 30 32 77 100 100 100 100 100 100 100 100 100 89 57 38 19 21 28 29 25 23 23 21 22 22 21 20 21 20 20 21 17 16 16 16 17 17 17
25 28 30 32 30 31 32 54 72 95 100 100 100 100 100 88 66 41 22 20 23 28 26 25 23 21 20 21 24 24 22 21 20 21 20 19 19 20 22 20 17 16 16
29 31 35 42 37 31 31 36 49 67 86 96 83 68 51 38 25 20 22 27 29 24 23 24 25 24 24 24 24 23 22 21 20 19 19 19 19 21 23 25 24 22 22
34 38 33 33 37 35 34 28 35 66 100 74 52 33 26 22 25 26 28 26 25 26 27 27 28 27 25 23 22 22 22 21 20 19 18 18 17 16 15 14 17 21 23
36 39 35 31 40 41 38 29 43 92 79 50 35 29 26 26 25 25 24 28 29 30 31 29 28 26 23 22 22 22 21 20 18 19 20 20 18 18 16 15 12 12 20
37 42 37 35 37 40 32 32 58 84 62 44 36 30 30 28 28 29 32 33 34 32 32 31 30 28 23 23 22 23 23 20 20 20 20 18 16 16 14 13 13 16 18
41 42 35 33 37 40 34 39 67 76 52 44 36 31 30 28 29 32 33 35 34 35 39 33 30 26 26 26 27 25 25 22 20 20 19 18 16 16 14 14 14 14 18
41 44 42 29 44 43 39 48 68 68 51 44 37 35 34 34 34 36 37 37 37 40 35 32 31 30 30 29 28 29 24 21 21 22 19 17 17 18 17 17 18 18 20
43 48 36 30 52 51 46 60 70 62 50 46 41 40 40 38 36 36 38 38 39 42 36 33 33 31 30 29 30 26 22 23 25 19 18 18 19 24 25 25 28 30 28
45 59 37 34 53 63 56 73 72 60 51 48 46 45 46 46 43 38 41 47 45 40 36 35 32 30 30 31 29 23 25 26 20 18 19 24 28 31 28 30 35 31 25
42 49 34 33 47 67 68 73 67 63 56 52 52 55 55 54 51 48 47 50 47 44 40 36 33 33 34 30 26 24 26 21 19 21 26 31 27 30 35 34 28 24 25
47 53 40 45 53 66 70 70 65 62 59 58 58 58 59 59 54 53 53 51 51 45 40 37 36 33 30 28 26 27 21 20 24 30 31 28 32 36 31 28 29 27 25
50 47 38 46 54 67 70 68 66 63 60 60 60 60 62 61 59 56 55 54 48 44 39 37 32 30 29 29 27 21 22 27 33 28 30 38 34 31 32 31 26 23 18
64 52 46 51 65 70 71 72 70 64 60 60 61 60 59 58 57 55 54 53 50 46 42 32 31 29 32 25 21 27 33 34 31 39 41 39 40 36 30 23 20 15 8
60 45 50 51 57 74 75 73 70 62 60 61 62 61 59 57 54 50 49 48 47 42 34 32 32 33 24 22 33 35 31 40 45 42 45 46 38 30 24 21 12 6 4
54 45 48 58 70 74 79 74 67 63 62 68 69 67 62 58 56 49 47 44 38 36 32 36 29 23 28 33 34 35 51 45 43 49 47 37 30 23 16 9 7 5 4
57 59 74 83 78 71 76 78 73 72 76 75 72 69 66 60 52 46 42 40 35 36 35 26 24 34 32 32 44 49 43 52 58 48 37 28 22 14 7 6 6 5 4
79 83 89 84 76 73 76 76 75 73 72 72 70 65 56 49 46 45 40 37 40 29 23 29 32 34 35 52 46 46 58 60 51 38 30 19 10 8 7 6 5 5 4
83 86 85 76 71 72 76 76 70 67 67 68 68 61 55 51 43 38 42 32 25 25 34 37 35 41 53 42 49 63 57 44 39 32 13 9 9 8 6 5 5 5 4
76 78 76 74 76 78 76 76 72 68 70 71 63 55 46 42 45 35 26 26 33 39 38 38 51 47 43 55 60 52 45 38 27 12 10 10 9 6 6 5 5 4 4
79 76 77 76 72 72 73 72 71 70 64 55 47 47 48 36 27 26 32 36 40 35 43 55 50 54 59 57 54 50 39 23 12 11 9 9 6 6 6 5 4 4 3
80 77 75 75 75 74 74 68 62 55 49 55 52 35 28 28 34 38 39 34 36 50 52 54 63 60 60 57 55 50 26 14 13 11 8 6 6 6 5 4 4 4 4
83 82 80 78 73 67 66 60 63 62 50 33 28 28 36 42 38 35 37 51 57 60 65 59 57 60 60 57 45 23 14 13 12 9 6 6 6 5 4 4 4 5 6
80 74 69 69 72 78 78 62 40 31 28 31 40 43 39 36 40 54 55 57 65 61 52 59 60 61 62 34 18 14 12 10 9 6 6 6 5 4 4 5 6 7 7
78 81 83 81 69 45 32 28 30 41 47 46 41 35 42 58 59 58 68 62 55 54 58 55 58 57 26 17 16 11 9 9 6 6 6 6 5 4 5 7 7 9 11
Wind_Speed
75 73 67 62 59 54 51 49 46 50 56 59 61 61 64 60 62 60 54 54 52 50 49 46 44 44 43 43 43 44 44 45 47 49 52 53 56 58 61 63 65 67 69
73 73 70 65 57 53 50 49 43 40 44 47 49 51 54 50 49 49 49 50 47 48 44 41 41 43 43 44 44 45 46 48 50 52 54 58 59 60 63 67 70 72 75
72 72 69 64 57 53 50 48 48 40 38 38 39 40 43 45 46 46 45 45 48 44 42 43 43 43 44 46 47 49 52 54 55 57 59 60 65 68 74 77 79 80 82
70 73 69 64 59 52 47 45 45 42 39 39 41 42 43 44 44 42 43 43 42 42 43 43 45 45 47 50 52 54 59 61 64 65 67 69 70 72 74 83 88 88 88
70 71 72 67 57 51 48 45 44 38 37 38 39 39 40 41 39 40 40 40 42 43 44 47 48 49 50 52 55 59 62 66 69 71 74 77 79 80 80 81 88 90 92
72 72 72 65 56 52 49 47 42 38 38 39 38 38 39 39 39 40 41 43 44 46 47 51 52 54 56 58 61 65 69 72 75 79 81 84 86 90 94 93 92 89 86
69 72 71 66 57 53 48 47 41 39 41 42 43 43 41 42 42 42 44 46 48 50 52 54 57 59 62 64 67 73 76 80 83 86 90 92 95 99 103 101 94 86 85
70 72 71 65 56 52 50 48 42 41 43 45 45 46 47 47 47 48 49 50 52 54 56 58 60 63 67 70 74 78 84 88 90 94 98 101 105 108 103 96 93 88 91
72 71 71 63 54 53 51 47 44 43 46 47 48 49 50 50 50 51 52 53 56 59 60 63 66 69 74 77 81 87 92 94 98 103 107 110 109 100 99 100 102 101 90
75 72 70 60 54 54 52 48 46 46 48 48 50 51 51 52 53 55 56 58 62 64 65 69 72 76 81 83 89 95 97 101 106 110 114 109 101 102 104 104 100 99 97
76 73 70 60 55 54 52 49 48 49 50 50 52 53 53 54 57 59 61 63 66 69 71 74 78 82 86 90 96 99 103 108 112 116 107 104 105 106 103 102 102 101 105
72 71 67 59 55 55 53 51 50 51 51 51 54 54 56 57 60 62 65 68 71 74 77 80 83 87 92 97 101 105 111 114 117 108 106 108 106 102 102 101 103 108 116
71 69 63 58 55 55 54 52 52 51 51 53 55 56 58 60 62 65 68 72 75 78 81 85 89 94 98 103 107 111 116 117 108 108 108 104 102 101 103 108 114 120 125
71 68 61 56 54 54 54 53 52 51 52 54 56 58 60 62 65 68 72 75 79 82 84 89 94 98 103 107 111 116 114 108 109 107 102 101 102 108 113 119 123 127 131
67 63 58 56 55 54 52 51 51 53 54 56 59 61 64 66 70 73 76 80 83 86 91 95 99 103 106 111 115 109 108 108 104 101 101 107 112 118 123 127 130 133 128
64 61 58 55 53 51 50 50 51 54 56 59 62 65 67 71 73 77 80 84 88 92 95 98 103 107 111 113 106 107 103 100 98 102 108 115 121 125 129 132 132 127 113
60 57 54 52 50 49 49 50 54 57 60 62 65 68 71 74 77 80 83 88 92 95 99 102 106 111 108 105 104 99 97 99 106 112 118 122 128 130 130 125 121 112 106
56 53 51 49 48 49 49 52 55 58 61 63 66 69 72 76 79 82 87 91 95 98 102 107 108 103 104 101 97 95 100 106 114 121 127 129 130 128 121 113 108 104 99
53 51 49 48 48 50 52 54 56 59 61 65 68 71 73 77 81 86 90 94 98 102 106 102 101 101 98 94 95 100 106 114 121 127 131 131 124 117 110 104 100 95 90
52 50 50 51 51 50 51 54 57 60 63 67 69 73 76 81 85 89 93 98 101 100 97 99 98 94 91 96 101 108 114 119 124 130 128 122 116 109 103 97 91 87 83
50 49 49 49 50 53 55 59 61 64 67 70 73 77 81 85 89 93 97 96 93 93 94 93 89 91 96 101 108 115 121 125 127 124 118 113 106 101 95 89 83 78 75
49 50 50 50 53 56 58 60 63 67 70 74 76 80 85 89 93 93 90 89 91 90 87 86 92 97 103 108 115 122 127 128 121 115 109 102 99 93 87 82 76 72 66
49 50 52 54 56 58 60 63 66 69 72 77 81 85 88 88 85 85 87 87 83 81 84 90 96 102 108 114 121 127 127 120 114 107 101 96 89 84 80 74 68 62 58
51 53 56 57 60 61 64 66 69 73 78 81 84 83 79 80 83 82 78 76 78 84 90 96 100 106 113 120 124 123 116 110 103 98 94 87 82 78 74 69 61 56 52
52 55 57 59 61 64 67 71 74 76 79 76 73 75 78 78 73 70 72 78 84 90 95 100 105 112 119 121 118 113 105 98 93 90 83 79 75 70 65 59 55 51 45
54 56 59 62 66 69 71 73 71 67 68 71 73 72 68 64 66 72 79 84 89 96 101 106 113 120 120 113 108 103 97 90 87 81 77 74 69 64 57 54 49 45 42
Wind_Direction
232 235 236 239 241 244 247 250 248 248 251 253 255 255 261 263 266 268 269 274 273 277 280 288 291 292 293 296 293 292 294 294 295 296 295 295 296 295 294 293 291 289 287
229 232 236 237 240 241 245 248 245 242 243 246 250 255 259 259 262 265 267 272 272 280 282 285 287 289 287 288 291 292 292 291 292 294 296 297 297 295 294 293 291 289 287
226 227 232 237 239 240 243 246 249 245 244 246 250 250 255 258 262 262 268 270 274 277 279 283 283 284 286 289 290 292 293 292 292 292 294 296 298 300 301 300 297 294 290
224 224 226 232 235 237 240 243 246 244 248 250 253 254 255 257 260 265 266 271 273 275 279 281 283 285 286 287 290 292 292 293 294 294 293 294 294 295 298 299 298 296 293
221 222 225 228 233 235 238 242 243 242 245 249 253 258 257 260 263 264 265 268 271 275 280 283 283 283 286 288 290 292 294 295 295 295 295 295 295 293 292 292 293 294 291
219 219 223 226 229 232 234 239 239 238 242 247 252 256 257 257 259 263 266 269 274 278 280 282 284 285 287 288 292 294 295 296 298 298 298 297 296 296 297 295 291 288 286
218 217 220 224 226 231 233 237 237 236 241 246 250 254 256 259 262 265 267 271 275 280 281 282 284 287 288 291 293 294 298 299 299 300 301 300 299 298 297 296 293 289 287
215 216 219 221 226 230 232 236 235 236 242 247 252 257 258 262 264 265 269 273 278 281 282 283 286 288 290 292 295 298 299 301 301 303 303 302 301 300 298 295 293 291 292
213 212 217 219 223 228 232 235 235 237 243 248 255 259 263 265 268 270 273 277 280 282 283 285 288 291 294 296 298 301 302 302 304 304 304 303 302 300 299 299 298 296 291
210 209 215 215 220 225 231 234 236 239 245 251 257 262 267 269 272 274 277 280 281 283 284 286 290 293 295 298 300 302 303 304 304 305 304 304 303 302 301 301 299 298 297
206 205 211 212 217 224 230 234 237 241 247 253 259 265 269 272 274 278 279 281 283 283 285 288 292 295 298 299 301 303 304 304 304 305 305 303 303 302 301 301 300 299 297
204 206 210 211 216 223 230 233 238 243 249 256 262 267 271 275 277 279 280 282 284 285 288 291 294 297 298 300 303 303 304 305 305 305 304 304 304 302 302 300 300 300 300
200 205 209 212 217 223 230 235 239 246 252 258 264 269 273 276 278 280 281 284 287 288 290 293 296 297 299 302 302 304 305 305 305 304 305 303 303 302 302 303 303 302 302
200 205 208 213 219 225 232 237 242 249 255 260 265 270 274 277 279 282 284 287 289 290 293 295 297 298 301 301 303 304 305 305 305 305 304 304 304 304 304 304 304 303 302
200 205 210 215 221 227 234 240 246 251 256 262 267 272 275 278 280 283 286 287 290 292 295 297 298 299 301 303 304 305 305 305 305 305 305 305 305 305 305 306 306 304 304
202 207 213 218 224 231 237 243 248 253 258 264 269 274 277 280 282 285 287 289 291 294 296 297 299 302 303 304 304 305 306 305 305 306 306 305 305 306 307 307 307 306 306
205 211 217 222 228 234 241 247 251 255 260 267 272 276 279 281 284 286 289 291 293 295 297 300 302 302 303 304 306 307 306 307 307 306 305 305 306 308 309 308 308 308 309
208 215 222 228 234 241 246 251 256 261 266 271 275 279 282 283 286 288 290 293 295 298 301 301 302 303 304 306 306 306 307 308 307 306 307 308 309 309 310 310 309 310 309
213 220 226 234 240 246 252 257 262 266 270 274 278 282 284 286 288 290 293 295 299 300 301 301 303 304 306 306 307 308 309 307 307 307 308 310 311 310 310 310 310 309 308
217 223 230 237 244 250 257 263 267 270 273 277 282 285 287 289 291 293 296 298 300 300 301 303 305 305 306 307 309 309 307 307 308 310 311 312 312 312 311 311 311 310 311
225 231 238 245 251 257 261 265 269 274 278 282 285 287 289 292 295 296 297 299 300 301 303 304 305 306 308 309 310 309 309 310 311 312 312 312 312 312 312 312 313 313 313
232 238 244 250 256 260 265 270 275 279 281 284 287 290 293 294 296 298 298 299 301 302 304 305 307 309 310 311 310 311 312 313 313 313 313 313 312 313 313 314 316 314 314
239 245 249 254 260 267 272 276 278 282 286 288 290 292 294 296 297 298 300 302 303 303 305 307 308 311 311 311 312 312 313 313 314 313 313 313 314 314 315 317 316 316 316
245 250 255 260 266 272 276 280 284 286 287 290 291 294 296 296 298 300 302 303 304 306 308 309 312 312 313 312 312 311 312 313 313 313 313 314 315 318 318 318 319 319 317
255 259 263 269 273 276 279 282 284 286 289 292 293 294 297 300 300 302 303 304 307 309 310 312 312 313 312 311 312 312 313 314 313 313 314 316 318 319 318 320 320 318 316
261 265 268 271 273 276 280 283 286 289 291 292 295 298 299 300 302 304 307 308 309 312 313 315 316 313 312 313 313 314 315 315 314 315 317 319 320 320 321 322 319 316 314